Wetbulb
35.44 39.10 40.06 40.26 40.89 42.13 39.37 42.34 39.57 42.66 42.95 44.55 45.86 46.54 48.85 50.46 50.85 52.76 54.53 56.61 58.89 60.25 61.62 62.79 64.94 66.19 67.07 67.89 69.02 70.35 70.21 70.14 70.38 71.29 71.60 71.88 72.27 72.34 72.31 72.04 72.14 71.60 71.70 71.66
33.59 39.68 40.28 38.69 41.83 43.17 43.02 42.52 41.73 43.62 41.36 45.65 48.21 48.29 48.59 49.75 50.41 51.03 53.34 56.86 58.86 60.63 61.76 62.65 64.66 65.94 66.94 67.81 69.03 70.19 69.96 70.05 71.05 71.48 71.69 71.63 71.77 72.06 72.34 72.11 72.31 71.56 71.16 71.30
29.06 36.73 37.03 35.54 40.78 42.72 43.45 43.86 43.97 40.88 45.06 47.19 46.44 46.73 47.98 49.63 50.23 50.43 51.57 55.32 58.11 59.70 61.72 63.21 64.72 66.60 66.89 68.10 69.54 69.71 69.97 70.57 71.21 71.59 71.63 72.19 72.31 71.83 71.61 71.60 72.08 71.32 71.24 71.17
29.09 32.14 28.37 38.63 44.36 47.47 44.92 46.15 46.15 46.70 46.69 47.89 49.39 51.31 50.48 50.64 51.39 50.99 51.70 53.77 56.19 58.55 61.02 61.77 64.24 65.87 67.49 68.21 69.10 69.85 69.91 70.40 71.34 71.73 71.80 72.22 72.51 72.23 72.01 71.83 71.60 71.47 71.15 71.02
28.90 29.00 35.71 40.52 45.72 47.19 45.29 44.63 47.48 46.89 48.02 47.72 49.28 49.40 50.06 50.61 50.29 51.67 52.33 53.15 55.30 58.19 59.74 62.01 63.11 65.90 67.04 67.87 69.11 69.76 70.21 70.53 71.29 71.88 71.85 72.29 72.37 72.34 72.60 72.19 71.73 71.63 71.75 70.80
29.15 28.23 28.78 39.14 48.71 52.79 50.89 41.27 53.64 51.25 48.19 48.54 47.32 43.68 47.76 51.82 54.76 52.69 54.64 54.64 56.61 59.65 62.31 62.25 63.97 66.21 66.64 67.29 68.60 68.91 70.69 71.25 72.07 72.57 72.35 72.17 72.82 72.99 73.33 73.07 72.45 72.58 71.60 71.20
30.92 30.54 35.13 44.59 51.08 54.94 41.57 44.25 55.69 56.68 56.31 48.51 47.13 50.28 53.83 61.36 63.76 64.61 66.14 65.66 57.32 58.32 58.53 60.11 64.93 66.32 66.37 66.78 67.87 69.90 71.16 72.16 72.42 72.97 72.99 72.92 73.28 73.67 73.66 73.47 73.18 72.61 71.66 71.61
31.15 30.59 29.59 48.96 51.94 49.60 52.17 55.65 56.32 57.64 57.82 53.80 55.59 60.66 62.45 61.90 61.56 61.58 62.41 65.48 66.60 65.51 66.21 67.74 65.51 66.06 65.99 66.54 68.81 70.56 71.41 71.91 72.18 72.97 73.31 73.33 73.46 73.42 73.68 73.77 73.19 72.15 71.65 71.72
36.26 36.03 43.49 50.43 50.04 55.15 56.47 55.14 56.06 55.83 57.29 59.41 59.88 60.40 61.40 59.81 59.57 59.59 58.95 59.10 59.14 58.49 60.02 62.59 66.78 66.46 65.58 66.62 68.30 68.89 69.69 70.55 71.97 72.85 73.29 73.89 73.59 73.44 73.18 73.43 72.77 71.89 70.94 71.22
39.02 42.85 46.09 51.41 54.43 54.61 55.35 55.26 55.69 57.03 57.73 57.90 57.87 58.71 57.58 57.68 57.52 57.69 58.07 58.00 58.14 57.29 57.22 58.20 60.70 62.10 62.36 64.17 68.41 68.61 66.94 68.50 70.04 71.51 72.11 73.76 73.73 73.76 73.48 73.07 72.72 71.59 71.30 69.86
38.79 43.14 48.29 52.76 53.74 53.59 54.98 55.84 55.82 57.13 56.82 56.03 55.82 55.32 56.10 56.51 57.23 57.72 58.30 58.49 58.59 57.46 57.02 58.37 60.58 63.10 63.96 64.22 62.91 65.78 68.67 66.92 68.45 69.79 70.13 72.81 73.25 72.74 73.19 74.08 72.02 72.60 71.51 68.78
36.62 44.06 46.77 49.03 52.92 54.47 54.12 55.38 55.67 55.67 55.83 56.59 56.45 56.33 58.35 58.06 58.94 59.95 60.87 61.53 62.56 62.98 63.22 62.37 62.85 63.28 62.51 62.73 62.77 62.36 66.24 68.69 67.42 69.24 70.31 71.94 64.43 60.35 50.57 56.79 52.62 53.35 55.34 62.73
45.60 49.99 51.07 52.81 54.08 55.18 54.84 56.61 57.64 56.93 56.92 56.73 57.26 58.63 59.29 59.09 59.31 59.36 61.17 61.88 62.00 62.28 63.43 64.65 64.88 62.99 60.98 62.34 63.10 62.56 61.64 68.53 69.69 68.10 68.24 64.33 66.16 64.73 60.29 55.48 48.63 50.45 52.08 54.25
49.96 50.76 51.01 53.01 52.40 54.89 56.03 56.05 56.49 57.69 57.91 57.70 57.61 58.22 58.10 58.10 59.12 60.58 60.69 61.62 62.24 61.88 62.79 64.22 64.53 64.30 64.28 62.98 64.86 63.46 62.09 56.97 66.70 66.92 66.29 67.18 65.93 65.75 64.20 63.61 62.11 60.67 51.53 51.72
49.07 51.50 52.77 53.98 54.66 54.43 55.18 56.01 54.78 54.15 54.68 55.32 55.99 55.95 55.80 55.60 55.59 56.29 58.37 61.29 61.86 61.12 60.64 61.03 62.75 63.13 65.31 66.77 66.35 63.08 61.99 64.71 64.73 64.41 64.15 66.36 66.41 65.37 64.28 63.39 62.35 60.57 53.99 49.68
51.45 51.87 52.54 52.98 53.53 54.12 54.27 54.35 53.90 53.94 54.71 54.29 52.93 53.14 53.76 53.91 54.32 54.77 55.66 58.54 60.54 60.02 60.45 60.21 60.43 61.63 63.81 65.51 65.58 63.84 62.63 59.67 60.92 62.40 61.67 60.24 61.35 61.81 62.14 60.23 57.92 57.50 59.14 53.94
49.97 49.61 51.49 51.39 52.40 52.85 52.94 53.72 54.11 54.57 54.70 54.47 54.96 56.36 56.33 56.73 56.46 56.05 56.33 56.34 56.80 58.32 59.10 59.21 59.36 61.74 61.99 63.65 64.51 65.48 64.48 63.58 60.77 62.70 61.34 60.69 60.17 60.13 60.61 60.16 59.66 60.45 59.08 54.64
52.03 51.82 51.89 51.63 52.24 52.55 52.53 53.24 54.25 54.68 54.62 56.06 56.77 56.17 54.87 53.45 52.75 52.91 53.93 56.15 56.19 55.95 56.27 58.17 60.12 60.91 61.84 62.34 62.21 63.71 63.49 63.99 63.73 62.33 62.15 61.27 60.35 60.04 59.66 59.64 59.70 58.11 54.86 50.86
53.46 52.92 53.00 52.91 52.21 53.16 54.33 54.64 54.76 55.01 55.72 55.74 54.66 53.59 53.49 52.45 51.35 50.50 50.92 50.73 50.63 51.22 51.98 54.49 58.20 59.99 60.93 62.08 62.00 61.75 61.90 61.96 61.57 61.93 62.27 59.10 60.69 60.36 59.84 59.53 58.41 56.69 54.16 53.82
53.24 54.23 53.96 53.02 52.76 52.46 52.31 53.69 55.26 54.46 53.95 52.66 51.84 51.13 50.22 50.62 51.02 50.25 50.42 49.21 49.52 50.35 52.03 54.25 55.59 58.94 60.06 60.64 60.58 60.85 61.11 60.76 60.61 60.32 60.11 61.06 61.71 61.03 59.40 54.48 57.09 56.21 54.48 53.91
50.17 50.32 50.06 49.48 49.11 49.87 50.69 52.47 52.16 51.89 52.56 51.45 49.98 48.73 48.10 48.94 49.92 50.19 49.66 49.17 51.05 52.84 53.63 54.26 54.80 56.60 58.91 59.18 59.66 59.59 59.00 58.69 58.45 58.13 57.81 58.02 58.98 60.05 59.80 59.79 58.42 57.27 56.17 54.92
46.17 46.38 47.14 47.90 47.31 47.50 48.35 49.00 48.11 47.23 47.10 46.68 45.96 45.43 45.47 45.72 48.92 49.87 49.41 48.89 50.50 50.95 52.19 52.74 53.50 54.54 54.40 54.58 53.93 54.63 56.01 57.50 56.93 56.49 55.65 55.32 55.71 56.32 56.57 57.41 56.57 56.85 55.91 55.73
44.63 45.33 45.34 46.02 46.50 46.26 46.90 46.50 45.98 45.17 43.84 43.66 43.96 45.30 44.71 45.82 46.68 45.70 43.82 46.96 47.71 47.66 48.31 49.06 50.85 52.33 52.85 53.29 52.50 52.04 51.91 51.96 52.08 53.82 55.40 56.41 57.63 57.75 57.75 56.83 56.45 56.83 55.55 55.11
42.29 42.67 43.66 45.33 45.30 44.98 43.25 43.84 44.04 43.99 44.62 44.45 43.64 43.97 43.77 43.57 43.02 44.20 44.17 44.64 44.80 44.78 44.92 45.86 46.56 48.03 49.15 50.10 51.62 51.58 50.24 50.25 50.36 50.30 50.15 47.00 49.47 49.43 48.55 49.43 52.69 53.53 56.65 54.81
40.99 41.67 41.88 42.08 41.86 41.92 42.47 42.90 42.42 42.11 41.82 41.17 41.28 42.26 42.60 42.87 41.78 42.70 43.17 42.93 43.45 42.83 42.41 44.59 45.70 45.47 45.34 45.91 48.08 48.77 49.87 50.08 49.43 49.92 49.12 48.49 47.84 47.11 46.84 46.39 45.33 45.01 46.27 46.47
37.89 38.97 40.83 41.23 40.93 41.34 41.90 41.49 39.68 39.83 39.74 38.65 38.72 39.74 40.50 41.18 41.15 41.46 41.32 41.56 40.83 40.94 40.50 41.11 42.25 43.16 44.30 44.99 45.57 46.51 47.40 47.25 48.76 48.88 48.13 47.92 47.51 46.67 46.17 45.34 45.17 44.79 44.40 44.69
37.05 37.53 37.67 38.82 39.43 40.79 39.90 39.03 37.85 37.15 37.96 37.89 36.73 38.08 38.45 38.60 38.61 38.64 38.92 38.60 38.66 38.55 38.66 39.06 39.38 40.85 42.20 43.29 43.49 43.74 43.84 44.21 42.40 45.43 47.67 47.89 47.25 46.99 46.19 45.56 44.81 44.39 43.59 43.04
MSLP
1005.37 1003.85 1002.78 1001.53 1000.56 999.87 999.42 998.59 997.75 997.67 996.72 997.34 997.14 996.71 996.35 995.64 995.68 996.05 995.91 995.82 995.65 995.55 995.38 995.77 996.51 997.22 997.83 998.40 999.56 1000.47 1001.37 1002.13 1002.68 1003.54 1004.35 1005.23 1005.95 1006.66 1007.56 1008.35 1008.79 1009.46 1010.38 1011.02
1006.25 1004.46 1002.63 1001.54 1000.33 999.46 998.77 998.17 997.30 996.70 995.62 995.41 995.34 995.38 995.71 995.54 995.65 995.60 995.36 995.00 994.90 994.92 995.11 995.26 995.64 996.21 996.80 997.40 998.09 999.11 999.95 1000.38 1001.40 1002.59 1003.40 1003.98 1004.78 1005.53 1006.54 1007.38 1008.04 1008.77 1009.32 1009.95
1006.64 1004.97 1003.52 1000.84 998.81 998.11 997.44 996.83 996.50 995.38 995.52 995.51 994.79 994.91 995.15 994.78 994.81 994.96 994.65 994.48 994.35 994.13 994.02 994.32 994.62 995.04 995.78 996.33 997.03 997.91 998.61 999.48 1000.42 1001.52 1002.43 1003.03 1003.88 1004.69 1005.28 1006.01 1006.83 1007.67 1008.47 1009.17
1007.52 1005.51 1003.00 999.66 997.95 996.74 996.28 995.50 995.14 994.98 994.72 994.43 994.05 993.04 993.13 993.30 993.55 993.70 993.69 993.81 993.56 993.12 993.17 993.30 993.40 994.28 994.87 995.87 996.86 997.37 997.93 998.86 999.77 1000.38 1001.10 1002.20 1003.03 1003.40 1004.09 1004.79 1005.31 1006.16 1007.03 1007.81
1007.79 1005.59 1001.68 999.58 998.34 997.83 997.58 996.11 994.80 994.38 994.12 993.88 993.33 992.97 992.48 992.80 993.07 992.89 992.65 992.55 992.86 992.68 992.53 992.44 992.64 992.80 993.63 994.80 995.74 996.66 997.17 997.78 998.39 999.06 999.83 1000.71 1001.52 1002.04 1002.83 1003.72 1004.30 1004.78 1005.77 1006.76
1007.16 1005.09 1001.89 999.29 998.64 997.81 997.87 997.09 995.68 995.36 993.63 993.04 993.45 993.71 993.02 991.83 992.35 992.53 992.66 992.74 992.82 992.89 992.94 992.81 992.93 993.31 993.78 994.30 994.84 995.72 996.38 996.34 996.89 997.83 998.74 999.67 1000.31 1001.17 1002.01 1002.67 1003.42 1004.25 1005.10 1005.70
1006.37 1004.45 1001.47 999.49 998.47 997.57 997.97 997.04 996.06 995.91 994.96 993.59 993.19 992.52 992.60 992.78 992.99 992.93 992.77 992.60 992.75 992.90 993.10 993.15 993.03 993.33 993.76 994.29 994.51 994.38 995.52 996.54 996.87 997.15 997.83 998.28 998.92 1000.33 1001.41 1002.19 1002.96 1003.64 1003.96 1004.44
1006.32 1004.00 1001.53 999.60 998.84 998.57 997.84 996.98 996.84 995.98 995.03 994.01 993.36 992.93 993.55 993.61 993.80 993.91 993.62 993.53 993.50 993.33 993.62 993.46 993.41 993.33 993.82 994.35 994.57 995.02 995.59 996.16 996.88 997.32 997.81 998.03 998.44 997.91 999.51 1001.54 1001.80 1002.54 1003.72 1004.17
1003.86 1001.58 1000.02 999.13 998.95 998.61 998.22 997.83 996.98 996.28 995.04 994.41 994.49 993.72 994.30 994.38 994.28 994.67 994.46 994.32 994.40 994.31 994.31 994.31 994.15 993.97 994.56 995.16 994.94 994.85 994.99 995.46 995.83 996.33 996.72 997.04 998.22 998.32 999.15 999.83 999.95 1001.17 1001.78 1002.80
1003.21 1000.81 1000.04 999.33 998.99 998.47 997.78 997.59 996.94 996.28 995.41 995.16 995.39 994.73 994.66 995.16 994.94 995.09 995.00 994.97 994.98 994.76 994.90 995.18 995.08 995.02 995.09 995.11 994.80 994.47 994.63 994.90 995.23 995.70 995.90 996.37 997.01 998.06 998.85 998.93 998.61 998.82 999.64 1000.05
1002.44 1001.06 1000.28 999.32 999.19 998.50 997.58 997.63 997.05 996.75 995.85 995.97 996.43 996.02 995.44 995.58 995.63 995.41 995.56 995.40 995.47 995.50 995.53 995.60 995.28 995.02 994.82 994.74 994.64 994.54 994.42 994.30 994.33 994.57 995.24 995.59 995.99 996.54 997.09 997.56 998.09 998.15 999.37 1000.74
1001.60 1001.07 1000.40 999.61 999.41 998.44 997.63 997.87 997.13 996.60 996.41 996.41 996.36 996.35 995.61 995.38 995.48 995.46 995.46 995.31 995.09 995.20 995.25 995.53 995.45 995.39 995.28 995.23 994.88 994.66 994.31 993.96 993.77 993.83 994.14 994.84 996.27 997.34 997.75 997.31 997.97 998.54 999.33 1000.60
1001.60 1001.04 1000.33 999.55 999.52 998.46 997.85 997.98 997.44 996.48 996.75 996.90 997.18 996.63 996.25 996.03 996.05 995.93 995.83 995.86 995.63 995.47 995.16 994.80 994.58 994.52 994.95 994.90 994.67 994.53 994.37 994.02 993.30 993.02 993.07 993.81 995.12 996.40 997.67 998.63 998.41 999.29 1000.15 1000.30
1000.81 1000.88 1000.23 999.69 999.16 998.55 997.97 998.06 997.98 997.29 997.61 997.74 997.51 997.34 996.76 996.63 996.57 996.51 996.48 996.56 996.33 996.02 995.84 995.67 995.39 995.33 995.34 995.32 994.90 994.19 993.98 994.17 993.71 993.41 993.05 992.93 992.99 994.46 995.81 996.93 998.43 1000.05 1000.46 1001.63
999.88 999.68 999.13 999.13 999.19 998.50 997.85 997.77 997.86 998.21 999.13 999.15 998.18 998.37 997.88 997.26 997.40 997.64 997.33 997.18 996.97 996.89 996.93 996.70 996.32 995.82 995.66 995.65 995.27 994.48 994.20 994.53 994.48 994.31 994.55 992.24 991.72 992.81 994.37 996.07 997.91 999.73 1001.84 1001.70
998.11 998.32 998.45 998.91 998.55 998.42 997.75 998.50 998.99 999.88 1001.32 1000.77 999.65 999.09 998.96 998.58 998.09 998.16 998.32 998.31 998.00 998.13 998.07 997.73 997.19 996.37 996.13 995.53 994.70 995.13 995.27 995.29 994.98 995.04 994.88 994.63 990.35 992.25 994.63 996.17 997.63 1000.81 1000.89 1002.61
997.23 997.89 998.05 997.36 998.37 998.34 998.34 999.09 999.74 1000.35 1000.80 1001.10 1000.78 1000.09 999.12 999.36 999.33 999.08 999.15 999.07 999.05 998.98 998.62 997.98 998.01 996.86 996.21 995.93 995.73 996.11 995.72 994.99 994.81 995.20 995.75 994.98 994.26 995.78 994.46 996.00 997.28 997.98 999.07 1001.62
997.68 998.14 998.15 997.90 998.79 999.08 999.92 1000.49 999.90 1000.65 1000.80 1001.34 1001.54 1000.31 999.98 1000.05 1000.65 1000.81 1000.22 999.90 999.47 998.95 998.94 998.70 998.26 997.64 996.93 997.09 996.81 996.60 995.65 996.09 995.94 995.58 995.75 996.49 996.31 997.10 995.58 995.37 996.92 999.09 1000.31 1001.24
999.03 999.21 999.07 999.68 999.83 1000.07 1000.01 999.83 1000.51 1001.13 1001.38 1001.81 1001.49 1001.09 1001.16 1001.88 1001.77 1001.50 1001.22 1000.56 1000.47 1000.34 1000.18 999.54 998.84 998.16 998.00 997.95 997.23 997.14 996.89 996.79 996.71 996.58 996.22 996.01 996.15 996.54 997.19 998.08 998.66 999.29 1000.07 1001.13
999.65 999.79 999.93 999.86 1000.05 1000.06 1000.56 999.92 1000.24 1001.33 1001.86 1001.71 1001.34 1001.84 1002.19 1002.29 1002.21 1002.08 1002.26 1001.59 1002.03 1002.22 1001.45 1000.59 1000.02 999.66 999.16 998.86 998.06 997.99 998.10 997.95 997.68 997.73 998.12 998.21 998.33 998.29 998.58 998.85 999.35 1000.11 1000.89 1001.71
1001.69 1001.54 1001.05 1000.78 1000.90 1001.26 1001.38 1001.94 1001.95 1003.06 1003.33 1003.09 1003.00 1003.31 1003.80 1003.81 1003.90 1003.98 1004.02 1003.08 1003.03 1002.60 1002.40 1001.83 1001.21 1000.62 1000.17 999.96 999.76 999.54 999.22 999.31 999.37 999.16 998.95 999.18 999.81 1000.01 1000.07 1000.15 1000.71 1001.15 1001.77 1002.30
1003.86 1003.32 1003.20 1003.12 1003.22 1003.05 1003.09 1003.81 1004.06 1004.27 1004.22 1004.22 1004.18 1004.76 1005.22 1005.31 1005.44 1005.47 1005.43 1004.67 1004.44 1003.83 1003.37 1003.16 1002.59 1001.83 1001.58 1001.19 1001.07 1001.09 1001.05 1000.94 1000.94 1000.74 1000.57 1000.61 1000.89 1001.06 1001.26 1001.50 1001.72 1001.93 1002.35 1002.75
1006.09 1005.53 1004.96 1004.59 1004.58 1005.36 1005.52 1005.86 1005.44 1005.26 1005.72 1006.13 1006.92 1007.25 1007.22 1007.13 1006.83 1006.03 1005.86 1006.15 1005.77 1005.36 1004.83 1004.69 1004.11 1003.42 1002.79 1002.44 1002.46 1002.45 1002.54 1002.55 1002.58 1002.40 1002.09 1001.94 1002.16 1002.11 1002.15 1002.33 1002.32 1002.37 1002.56 1002.79
1007.91 1007.79 1007.73 1007.53 1006.95 1006.55 1006.91 1007.50 1007.54 1007.72 1008.26 1008.46 1008.58 1008.34 1007.57 1007.29 1007.47 1007.80 1007.71 1007.29 1007.09 1006.71 1006.65 1006.55 1005.74 1004.97 1004.13 1004.14 1004.30 1004.14 1003.85 1003.64 1003.92 1003.65 1003.29 1003.36 1003.40 1003.18 1003.40 1003.36 1003.27 1003.51 1003.48 1003.35
1009.69 1009.43 1009.19 1009.06 1009.20 1009.66 1009.62 1009.51 1009.13 1009.41 1009.16 1009.35 1009.11 1008.87 1008.71 1008.79 1008.81 1009.31 1008.71 1008.44 1008.37 1007.95 1007.78 1007.51 1006.85 1006.44 1006.21 1006.19 1005.95 1005.66 1005.60 1005.71 1005.51 1005.01 1004.61 1004.65 1004.63 1004.41 1004.43 1004.62 1005.16 1005.08 1005.20 1005.08
1011.32 1011.32 1011.17 1010.94 1010.85 1010.55 1010.32 1009.98 1010.10 1010.27 1010.24 1010.14 1010.28 1010.35 1010.21 1010.03 1010.08 1009.90 1009.67 1009.84 1009.71 1009.32 1009.01 1008.71 1008.28 1007.88 1007.66 1007.64 1007.46 1007.11 1006.78 1006.58 1006.58 1006.50 1006.26 1006.17 1006.14 1006.02 1005.76 1006.03 1005.90 1005.82 1005.95 1006.29
1012.73 1012.48 1012.15 1011.89 1011.85 1011.72 1011.54 1011.42 1011.33 1011.67 1011.58 1011.52 1011.60 1011.77 1011.38 1011.25 1011.24 1010.91 1010.81 1010.82 1010.64 1010.46 1010.51 1010.38 1009.97 1009.63 1009.35 1009.03 1008.66 1008.47 1008.42 1008.26 1008.12 1007.68 1007.41 1007.31 1007.21 1007.25 1006.96 1006.87 1006.77 1006.78 1006.59 1006.87
Wind_Speed
1 10 6 10 12 10 10 21 16 15 24 11 9 11 13 14 8 8 10 8 9 11 13 14 16 17 18 17 18 19 20 20 22 20 18 17 17 16 15 15 15 16 15 14
4 9 11 9 12 12 12 11 10 21 12 10 14 12 8 11 10 10 11 10 8 9 9 12 17 18 18 19 21 21 21 22 19 18 18 19 18 17 16 15 15 14 16 16
5 4 8 12 9 16 12 8 12 18 12 7 9 10 14 16 11 13 12 11 9 12 14 15 16 17 18 19 17 20 21 19 19 17 18 18 17 16 17 17 15 15 16 15
5 3 10 6 6 5 12 19 16 15 8 13 17 20 17 17 17 16 13 11 11 10 10 11 12 15 13 12 15 17 18 16 17 18 19 17 17 19 18 16 18 16 17 17
4 5 9 17 4 5 1 9 9 15 12 9 14 9 10 8 10 14 13 11 11 6 6 6 10 15 15 15 16 16 17 18 19 19 20 19 19 20 17 16 16 16 14 15
3 6 7 1 3 8 5 6 11 9 14 14 8 5 8 7 3 8 4 2 3 2 2 3 3 6 11 13 15 16 17 21 20 19 19 19 19 18 16 14 14 12 13 15
11 5 7 4 10 4 6 6 18 12 15 12 10 9 2 6 7 4 4 6 6 7 7 3 4 8 8 8 14 18 13 12 14 17 18 19 19 16 14 14 12 14 15 15
6 6 12 3 6 2 6 10 13 12 9 8 2 8 8 7 7 6 7 8 7 10 7 6 5 6 7 6 2 4 6 9 11 13 12 12 17 17 18 15 15 14 13 12
10 8 7 4 6 5 4 10 9 10 7 5 3 11 9 6 8 6 6 6 5 8 10 10 10 7 8 1 3 1 7 9 12 13 14 14 13 14 13 17 15 13 13 11
6 6 8 5 4 4 3 6 8 6 6 10 3 6 8 5 6 5 4 5 4 7 9 7 6 5 4 1 2 4 6 7 8 11 12 14 12 12 13 14 16 16 17 17
6 14 9 3 3 3 3 6 5 6 8 9 4 4 7 7 6 6 5 5 5 5 5 4 2 4 5 6 5 4 3 5 8 10 12 13 13 12 15 15 14 13 11 9
10 5 7 6 4 4 5 4 3 6 9 8 6 5 8 11 7 8 8 6 8 7 6 5 3 4 3 4 4 6 8 5 7 8 9 10 8 4 15 11 15 16 16 12
9 6 14 6 6 3 4 3 3 9 8 8 8 6 10 10 10 10 11 11 11 9 10 10 12 10 6 6 6 4 7 9 7 10 10 12 11 10 10 8 17 11 10 17
12 11 11 10 5 4 8 6 2 9 6 6 6 7 8 10 10 12 13 9 9 11 12 9 8 10 8 8 9 9 2 7 4 5 9 11 14 15 14 16 15 10 4 7
15 13 5 4 7 7 8 9 12 13 11 6 7 7 9 12 12 10 8 7 8 11 10 9 9 9 8 7 4 8 2 4 3 4 9 12 16 16 14 13 11 8 4 6
11 12 7 10 11 13 17 15 13 9 1 7 7 6 5 7 10 11 10 9 11 10 9 8 8 9 7 7 7 4 3 4 1 3 6 10 11 14 12 11 11 5 8 7
12 12 8 9 14 13 17 8 8 5 3 3 6 4 11 10 11 11 10 9 7 8 8 9 9 9 10 9 8 4 4 5 4 4 4 7 2 5 9 11 13 10 10 10
13 11 9 11 12 12 9 7 8 4 5 3 3 11 14 15 13 11 10 8 9 11 12 11 10 9 9 8 7 3 5 4 4 2 3 3 6 1 6 9 10 9 7 5
12 11 10 6 7 8 9 11 9 7 10 9 11 13 13 10 10 9 8 12 12 12 13 11 16 12 10 9 6 5 5 4 5 4 4 7 8 8 6 5 6 7 8 7
15 15 14 16 15 14 10 12 15 13 10 11 15 15 14 12 11 11 9 14 9 4 9 13 11 10 9 12 12 6 6 7 6 6 6 6 4 5 5 7 7 6 6 5
20 17 16 18 18 17 16 13 14 12 11 12 14 13 11 10 13 11 11 10 14 12 12 17 13 8 9 10 11 9 9 8 8 8 7 6 5 6 5 6 4 3 4 4
15 15 15 15 18 18 18 15 16 14 15 16 17 14 13 12 9 13 13 10 9 17 13 12 11 17 13 17 10 10 9 8 6 5 6 6 5 6 5 4 4 2 4 4
15 15 17 18 17 14 16 15 15 16 17 16 13 10 11 9 9 11 12 14 10 16 13 13 21 22 21 13 11 11 11 11 9 7 6 6 5 5 4 4 4 3 3 3
14 13 12 11 14 16 17 14 14 14 13 13 13 12 10 9 11 9 9 14 19 17 15 16 19 24 21 11 11 12 12 11 10 9 9 9 8 9 9 8 8 8 4 2
13 13 14 13 12 8 8 7 11 11 13 13 14 13 14 10 10 7 9 11 20 15 13 21 25 22 12 11 11 11 10 10 10 9 10 9 9 9 9 9 9 8 8 8
13 9 8 11 8 6 6 7 9 7 7 10 10 9 9 9 9 9 10 13 12 14 11 11 12 12 11 12 11 12 11 11 10 9 10 9 9 9 9 8 8 10 10 9
11 14 9 9 8 8 8 9 9 8 8 8 9 8 9 9 11 11 13 11 10 10 9 9 10 12 10 11 11 11 11 10 12 10 9 7 7 7 8 7 7 7 8 9
Wind_Direction
292 283 249 243 256 263 238 228 221 236 243 229 235 229 234 236 246 232 253 257 217 204 199 193 190 196 198 195 189 191 193 196 201 199 198 197 196 195 192 191 191 190 189 196
268 270 292 284 265 259 242 237 258 256 256 191 214 216 235 244 251 242 238 243 225 205 196 184 189 193 193 190 191 188 194 200 197 195 193 196 194 191 191 190 195 191 196 197
254 263 313 285 238 239 241 198 216 244 238 228 248 204 222 234 230 234 237 234 226 205 195 196 198 193 195 199 188 191 197 196 195 193 197 197 193 190 192 192 185 193 198 197
258 310 240 246 271 258 256 236 217 236 213 210 224 238 217 219 217 227 232 226 231 234 219 206 189 188 196 180 190 194 198 194 192 192 196 193 192 196 195 192 190 188 194 196
209 224 298 307 11 6 59 288 265 212 211 221 227 265 256 204 208 226 233 227 231 261 271 240 190 198 178 173 185 192 196 195 193 193 193 192 195 198 197 194 194 194 192 190
153 206 233 237 248 282 150 260 8 328 217 204 150 199 251 241 203 245 251 157 242 230 210 217 244 163 168 181 182 194 200 200 193 192 193 196 199 199 198 196 195 186 187 194
239 250 285 267 303 305 185 289 318 309 289 243 190 211 167 100 70 61 76 88 111 84 101 92 157 152 165 169 198 206 202 208 200 191 194 196 190 193 197 194 185 193 192 196
217 241 240 327 327 278 335 307 305 298 279 270 208 103 106 98 87 67 70 64 57 83 68 46 41 135 153 194 348 164 178 190 200 205 206 214 205 177 181 193 190 186 197 215
198 207 238 180 209 264 278 293 300 290 313 353 133 119 119 115 100 77 69 65 59 72 64 40 42 74 91 22 57 2 188 198 201 198 202 190 198 187 185 188 186 190 190 203
299 259 247 235 258 282 310 286 295 309 29 37 68 111 107 90 87 93 84 79 65 70 70 54 33 54 96 73 28 141 203 210 188 200 198 197 191 193 198 197 201 194 193 180
294 275 290 229 287 296 351 301 3 23 46 54 11 59 103 90 76 80 84 95 115 113 112 112 329 5 354 346 340 322 258 223 200 197 197 198 198 197 196 202 201 189 192 178
246 279 245 236 278 329 60 304 65 55 41 34 48 28 69 65 50 54 45 32 51 57 76 92 114 80 28 315 302 301 284 249 211 197 191 189 159 84 19 138 122 115 120 137
259 287 298 217 254 220 91 333 30 74 49 41 15 43 66 74 59 59 55 47 41 36 36 23 17 15 15 358 356 295 259 276 228 202 176 161 160 149 126 49 79 99 150 143
266 265 239 212 220 229 109 56 352 81 47 43 45 28 57 69 65 58 50 38 38 44 40 30 31 18 351 330 336 341 317 347 318 210 184 179 160 152 146 139 137 142 54 289
248 234 224 207 202 109 74 65 60 42 15 12 43 52 48 66 58 44 29 25 42 44 27 13 15 10 360 348 357 6 106 19 8 24 351 221 157 148 138 128 129 140 134 99
235 193 171 217 145 116 89 77 81 57 174 307 4 37 63 60 68 59 43 28 52 40 17 1 7 352 353 7 31 56 43 328 28 40 54 43 2 115 123 124 113 158 122 245
162 153 141 129 103 95 88 75 86 89 73 336 330 36 57 52 47 44 36 27 31 36 18 21 349 354 7 18 32 47 67 51 41 204 123 117 61 288 130 138 156 140 149 188
74 93 99 90 95 99 109 132 90 114 98 86 41 54 64 57 45 36 33 27 31 29 21 360 359 5 17 10 15 18 52 56 68 67 61 112 86 179 81 87 108 139 130 111
54 64 73 72 97 117 100 85 69 67 88 89 74 64 64 63 69 50 32 48 37 26 353 349 354 12 18 8 50 22 28 49 58 39 72 76 67 48 66 107 109 104 102 120
57 59 66 76 69 68 71 67 71 65 54 64 66 61 57 43 40 37 18 54 33 347 335 5 8 13 12 5 21 47 30 15 37 60 51 39 67 105 91 77 80 81 116 130
51 53 49 58 61 54 56 69 70 52 50 51 60 55 49 42 44 32 32 40 9 11 30 33 25 21 35 29 27 23 30 32 39 33 44 55 24 31 43 69 74 85 101 122
33 33 43 61 69 61 54 57 58 57 53 49 49 45 45 35 42 64 48 41 20 24 35 30 31 40 44 43 36 33 26 33 29 49 53 43 61 82 58 59 69 86 121 121
47 36 26 33 49 59 62 58 61 56 54 50 48 46 62 61 48 49 41 12 33 38 41 29 22 33 45 44 45 48 43 30 22 20 27 37 33 42 61 73 85 86 82 130
40 44 52 46 45 48 49 38 49 53 60 60 56 46 46 51 53 44 45 37 33 42 45 31 30 30 40 38 37 36 36 37 31 25 36 36 35 35 35 24 32 8 359 54
36 39 39 43 53 53 60 55 61 51 54 52 46 43 45 43 58 37 41 41 34 37 34 25 30 32 35 33 28 36 41 38 28 35 35 36 41 52 48 48 44 43 26 24
34 38 43 43 40 37 47 57 62 44 51 56 46 35 39 41 45 46 48 42 43 38 33 23 23 28 30 31 28 28 31 29 26 36 37 36 36 41 56 56 52 57 54 42
37 33 27 34 28 30 38 47 58 44 37 48 63 38 41 41 37 42 41 38 37 39 37 33 30 30 28 26 28 29 28 26 24 22 26 33 38 34 39 55 60 56 61 56